,

(GMT )
Teruel

Tiempo Historia de LETL - Noviembre, 2017

Change the Weather History Date:

Miércoles, Noviembre 15, 2017

  Actual Average Record
Temperature  
Temperatura media 40 ° F -  
Temperatura máxima 59 ° F - - ()
Temperatura mínima 21 ° F - - ()
Degree Days  
Grados día de calefacción 25    
Moisture  
Punto de rocío 18 ° F    
Average Humidity 51    
Maximum Humidity 80    
Minimum Humidity 20    
Precipitación  
Precipitación 0.00 pul - - ()
Presión al nivel del mar  
Presión al nivel del mar 30.12 pul    
Viento  
Velocidad del viento 4 mph ()    
Velocidad máxima del viento 8 mph    
Max Gust Speed -    
Visibilidad 6.2 Millas    
Eventos Lluvia    
T = Trace of Precipitation, MM = Missing Value Source: Averaged Metar Reports

Daily Weather History Graph

Daily Weather History Graph

Search for Another Location

Airport or City:

Trip Planner

Search our weather history database for the weather conditions in past years. The results will help you decide how hot, cold, wet, or windy it might be!

Date:

Astronomía

Nov. 15, 2017 Salida Puesta
Hora real 7:51 AM CET 5:47 PM CET
Crepúsculo civil 7:21 AM CET 6:16 PM CET
Crepúsculo náutico 6:48 AM CET 6:49 PM CET
Crepúsculo astronómico 6:16 AM CET 7:21 PM CET
Luna 4:36 AM CET (11/15) 4:35 PM CET (11/15)
Horas de luz 10h 54m
Horas de luz
9h 56m
Creciente menguante, 9% of the Moon is Illuminated
Nov 15
Creciente menguante
Nov 18
Nueva
Nov 26
Cuarto creciente
Dic 3
Luna llena
Dic 10
Cuarto menguante

Hourly Weather History & Observations

Hora (CET) Temp. Vientos helados Punto de rocío Humedad Presión Visibilidad Wind Dir Velocidad del viento Velocidad de ráfagas Precip Eventos Condiciones
12:30 AM 28.4 ° F 24.6 ° F 17.6 ° F 64% 30.15 pul 6.2 mi ONO 3.5 mph - N/A   Desconocido
2:00 AM 26.6 ° F 22.6 ° F 15.8 ° F 64% 30.15 pul 6.2 mi SSE 3.5 mph - N/A   Desconocido
3:00 AM 26.6 ° F - 17.6 ° F 69% 30.15 pul 6.2 mi ONO 2.3 mph - N/A   Desconocido
4:00 AM 24.8 ° F 17.9 ° F 15.8 ° F 69% 30.15 pul 6.2 mi OSO 5.8 mph - N/A   Desconocido
4:30 AM 23.0 ° F 18.4 ° F 15.8 ° F 74% 30.12 pul 6.2 mi Oeste 3.5 mph - N/A   Desconocido
6:00 AM 24.8 ° F - 15.8 ° F 69% 30.12 pul 6.2 mi Variable 1.2 mph - N/A   Desconocido
7:30 AM 24.8 ° F - 15.8 ° F 69% 30.15 pul 6.2 mi Sin viento Sin viento - N/A   Desconocido
8:00 AM 21.2 ° F 16.4 ° F 15.8 ° F 80% 30.15 pul - Oeste 3.5 mph - N/A   Despejado
8:30 AM 24.8 ° F - 15.8 ° F 69% 30.15 pul 6.2 mi SO 2.3 mph - N/A   Desconocido
9:00 AM 28.4 ° F 23.3 ° F 17.6 ° F 64% 30.15 pul 6.2 mi OSO 4.6 mph - N/A   Desconocido
10:00 AM 33.8 ° F - 17.6 ° F 52% 30.15 pul 6.2 mi Variable 2.3 mph - N/A Lluvia Lluvia
11:00 AM 39.2 ° F 35.9 ° F 19.4 ° F 45% 30.15 pul 6.2 mi ESE 4.6 mph - N/A   Desconocido
11:30 AM 41.0 ° F 39.0 ° F 19.4 ° F 42% 30.15 pul 6.2 mi SSE 3.5 mph - N/A   Desconocido
12:30 PM 50.0 ° F - 19.4 ° F 30% 30.12 pul 6.2 mi Variable 1.2 mph - N/A   Desconocido
2:30 PM 55.4 ° F - 17.6 ° F 23% 30.06 pul 6.2 mi NNO 5.8 mph - N/A   Desconocido
3:30 PM 57.2 ° F - 17.6 ° F 21% 30.06 pul 6.2 mi NNO 6.9 mph - N/A   Desconocido
4:00 PM 59.0 ° F - 17.6 ° F 20% 30.06 pul 6.2 mi NNO 8.1 mph - N/A   Desconocido
5:00 PM 57.2 ° F - 17.6 ° F 21% 30.06 pul - NNO 6.9 mph - N/A   Despejado
7:00 PM 44.6 ° F 41.4 ° F 21.2 ° F 39% 30.09 pul - NO 5.8 mph - N/A   Despejado
8:00 PM 41.0 ° F 36.4 ° F 21.2 ° F 45% 30.09 pul - NO 6.9 mph - N/A   Despejado
8:30 PM 39.2 ° F 34.2 ° F 19.4 ° F 45% 30.09 pul - ONO 6.9 mph - N/A   Despejado
9:30 PM 37.4 ° F 31.4 ° F 19.4 ° F 48% 30.12 pul - ONO 8.1 mph - N/A   Despejado
10:00 PM 37.4 ° F 31.4 ° F 19.4 ° F 48% 30.12 pul - Oeste 8.1 mph - N/A   Despejado
10:30 PM 37.4 ° F 32.1 ° F 19.4 ° F 48% 30.12 pul - Oeste 6.9 mph - N/A   Despejado
11:00 PM 35.6 ° F 30.7 ° F 19.4 ° F 52% 30.12 pul - Oeste 5.8 mph - N/A   Despejado
11:30 PM 33.8 ° F 27.7 ° F 19.4 ° F 56% 30.12 pul - Oeste 6.9 mph - N/A   Despejado